Theta_e
290 290 290 291 292 292 292 292 289 286 287 292 293 297 300 303 307 308 309 315 318 320 323 325 328 330 331 332 332 331 331 330 328 328 327 327 328 327
291 290 290 291 291 291 291 292 292 290 287 292 292 296 298 303 305 307 308 314 316 318 321 323 325 328 330 330 329 329 329 329 329 329 328 328 328 328
290 290 290 291 290 290 290 291 291 291 289 292 293 293 295 297 300 304 308 309 310 318 321 322 323 325 326 326 326 326 327 327 328 328 328 328 327 327
291 290 290 292 291 291 290 289 290 291 291 289 292 292 293 296 298 299 302 307 309 314 318 322 321 322 323 323 322 324 324 325 327 328 328 328 328 327
292 291 291 292 290 291 291 291 290 292 291 291 291 293 294 295 297 299 300 302 308 314 317 320 320 321 321 320 319 320 320 321 323 325 325 326 327 328
293 293 292 292 292 291 292 291 291 290 291 291 292 292 294 296 297 297 298 300 303 310 314 316 319 320 320 320 320 319 318 320 321 321 321 323 325 326
293 293 294 296 299 298 293 292 291 289 290 290 291 291 292 295 295 298 298 298 299 305 308 311 314 315 316 319 317 317 316 319 320 320 320 319 321 322
295 296 296 299 300 302 302 303 299 291 289 289 290 291 291 295 297 298 297 298 297 305 305 308 312 312 314 314 316 317 316 318 318 319 318 318 318 319
297 296 296 297 298 296 298 301 300 301 301 295 291 292 292 295 298 297 297 298 296 301 307 305 310 309 313 313 315 316 316 316 316 316 316 317 318 318
298 297 296 296 296 295 294 293 293 293 294 295 296 294 296 298 300 300 299 299 301 304 303 301 307 307 310 312 314 315 316 315 314 315 316 315 315 316
298 297 296 295 298 300 295 292 292 292 298 301 302 301 301 303 302 301 298 297 294 300 302 302 304 304 307 309 312 313 314 313 314 315 315 314 313 314
298 296 299 297 298 299 294 291 291 291 294 296 297 300 301 301 305 302 300 297 294 296 302 299 302 301 299 303 307 309 310 312 312 313 313 313 312 311
296 295 294 299 299 299 299 293 292 295 296 296 295 297 298 300 302 302 301 300 295 295 300 299 300 300 300 298 302 303 308 310 310 311 311 310 309 308
296 295 295 297 298 298 298 299 300 299 295 293 294 295 295 296 299 300 300 300 300 298 302 299 298 300 297 297 298 299 302 305 308 308 309 311 309 308
296 296 296 297 298 297 299 300 301 298 294 292 293 291 293 296 299 300 300 300 298 299 301 299 301 302 301 298 297 298 298 300 304 305 305 307 307 307
297 295 296 296 297 296 296 294 298 298 294 293 293 293 294 295 296 297 298 297 296 296 298 300 301 302 299 300 299 299 300 297 300 302 303 302 304 305
296 293 289 288 288 289 293 291 295 296 295 294 292 290 293 294 294 296 296 296 294 297 295 296 300 301 301 301 299 300 300 299 300 299 299 298 300 302
291 289 286 287 286 286 288 291 291 294 294 293 293 293 292 292 293 295 296 295 295 295 298 296 296 298 298 300 303 300 299 299 300 300 300 298 298 299
289 288 285 286 286 286 287 287 289 293 293 293 292 291 292 293 294 295 296 296 295 295 298 296 295 295 294 294 297 301 299 299 300 299 300 300 299 299
288 287 288 289 291 290 287 287 287 288 289 291 291 291 292 294 294 295 295 295 295 297 296 297 295 296 296 294 295 298 299 300 301 299 299 300 301 303
286 286 288 289 289 290 292 292 289 289 289 289 289 290 291 295 295 296 296 297 297 296 296 296 296 302 298 299 295 295 297 296 301 301 300 299 298 298
286 287 288 288 289 289 290 291 293 294 293 289 292 290 291 292 294 297 297 296 296 297 297 298 297 298 297 296 293 294 295 297 299 300 301 300 299 295
285 287 287 288 288 288 289 290 290 292 294 292 290 294 295 295 293 298 298 299 297 297 298 297 297 298 297 298 296 295 295 296 299 298 299 301 301 301
Wind_Speed
10 9 8 8 9 8 7 7 8 12 12 8 5 6 5 5 8 7 8 15 20 17 18 22 21 22 21 22 19 17 16 16 16 16 17 16 16 17
8 10 9 8 9 8 7 7 8 10 13 8 6 6 5 5 8 9 8 18 19 20 19 20 20 21 22 21 20 19 19 17 17 17 17 18 16 17
12 12 13 11 9 7 6 7 8 8 12 10 6 6 5 7 8 6 8 7 7 19 18 21 24 20 20 20 19 20 18 19 20 19 17 14 16 17
13 14 14 10 13 10 8 9 9 8 9 17 7 4 7 6 9 9 10 8 7 14 21 20 21 19 16 14 8 14 15 20 21 20 19 19 17 17
15 15 15 15 13 11 11 10 9 8 10 11 9 5 5 4 7 7 6 6 5 15 20 19 21 20 20 16 13 10 14 18 18 19 18 17 17 18
16 16 16 16 16 14 13 12 10 9 9 9 9 6 5 5 6 8 8 4 6 7 12 13 18 19 18 18 18 16 13 15 15 17 17 16 17 17
17 17 18 19 27 23 11 14 12 10 9 10 10 7 10 8 9 5 9 5 5 5 6 7 11 9 9 12 11 14 13 17 21 19 16 15 15 17
16 16 17 26 24 30 29 28 20 15 14 10 9 10 12 10 9 9 7 6 6 4 4 8 10 8 9 6 11 13 12 14 19 18 18 16 15 15
16 15 14 12 20 15 20 28 23 26 23 13 12 14 11 12 9 10 5 5 4 4 8 5 8 11 6 8 14 13 15 14 14 16 16 17 16 16
15 14 13 12 13 14 13 11 11 9 9 8 7 14 12 7 9 10 9 4 2 4 4 4 3 5 7 6 18 14 13 14 15 16 16 17 17 16
15 12 12 12 17 21 14 12 11 10 12 20 20 22 19 22 16 4 3 5 3 3 3 3 3 4 4 7 8 13 12 13 14 18 18 18 18 16
13 11 18 13 20 21 12 7 9 9 7 6 10 13 17 14 26 14 7 9 3 3 4 3 5 4 3 2 5 5 4 9 13 16 19 19 18 7
10 7 7 17 18 19 19 8 10 9 10 8 7 7 5 7 6 8 9 8 3 3 6 4 4 3 4 4 0 3 5 4 5 10 16 16 18 13
5 6 6 14 15 14 12 14 15 13 5 5 4 3 5 2 3 5 7 4 0 5 10 6 4 5 4 3 3 2 3 2 6 6 7 10 17 16
5 7 9 10 10 7 9 9 12 8 6 4 3 3 2 2 5 6 5 5 5 5 4 3 8 4 4 4 5 3 5 2 3 7 6 7 8 7
3 1 2 1 2 1 3 6 3 4 7 6 5 2 3 3 5 4 3 3 3 3 5 3 7 7 3 4 5 6 5 5 3 6 6 4 5 6
5 3 3 3 3 2 3 4 3 2 5 5 4 4 5 3 3 3 3 3 3 4 3 3 6 7 4 8 4 4 5 3 3 7 5 4 2 5
4 3 3 1 1 1 2 4 3 3 3 5 6 7 6 4 4 3 4 4 4 3 4 2 3 6 4 6 5 7 3 3 3 8 5 5 4 3
5 4 3 3 3 2 1 2 1 3 2 3 3 4 4 4 6 5 5 6 5 5 6 4 3 5 6 4 2 3 8 2 3 5 4 2 4 5
5 5 5 5 4 3 2 1 1 1 2 3 4 4 4 5 4 5 5 7 6 7 5 4 4 3 5 6 4 3 4 8 6 7 4 2 4 7
7 6 5 4 4 5 4 3 2 3 3 3 2 3 4 6 4 7 5 9 11 5 6 5 5 9 4 6 5 3 3 4 7 9 6 4 3 4
6 6 5 5 4 4 3 4 2 4 5 4 4 4 4 4 4 5 7 6 7 8 6 4 4 4 3 3 4 5 3 2 5 8 7 9 6 6
7 6 6 5 4 4 3 3 3 3 4 6 5 5 6 5 4 3 5 7 6 6 6 5 5 3 2 7 8 6 6 5 4 3 2 4 5 7
Wind_Direction
256 248 243 255 256 236 228 226 248 271 268 256 254 230 233 233 234 247 247 254 263 257 243 235 222 216 206 211 204 195 206 206 206 208 206 208 208 203
254 252 246 248 244 236 228 238 238 252 270 254 243 239 236 240 244 251 244 247 256 251 245 232 221 211 207 204 200 197 192 198 198 201 210 203 204 205
256 256 257 253 248 242 228 234 243 245 258 264 243 232 238 249 253 248 241 240 245 247 247 231 214 199 199 207 197 203 193 190 191 195 199 202 205 202
263 257 257 258 254 250 241 241 241 236 249 268 256 230 224 236 256 239 248 236 231 245 247 233 207 194 181 190 182 208 190 204 188 188 188 194 196 194
264 256 254 250 251 250 245 238 234 243 247 256 257 220 229 208 261 251 237 230 227 240 243 224 202 191 184 183 186 201 207 196 191 181 183 187 189 186
265 259 255 251 248 246 247 246 242 239 242 253 253 236 224 227 228 247 247 222 224 224 230 210 197 185 177 173 185 187 192 177 190 184 176 183 186 187
259 257 256 251 248 246 233 239 232 231 234 239 246 244 250 240 234 228 229 216 227 204 205 202 195 185 179 169 183 174 175 178 193 175 171 176 176 173
254 248 241 251 257 266 263 260 232 221 224 228 238 239 242 229 240 237 224 203 224 198 191 207 185 183 178 169 159 172 168 172 190 180 164 164 166 169
262 251 246 237 250 246 254 261 266 265 247 228 220 233 233 228 224 220 197 192 197 184 187 198 182 193 172 179 161 174 176 175 179 170 162 157 167 166
273 254 248 244 235 237 240 245 246 247 258 268 192 215 242 219 217 221 201 134 249 164 165 162 216 162 159 167 173 161 178 174 171 161 161 163 164 164
270 242 239 239 230 240 247 229 239 240 249 251 247 232 227 238 226 223 184 175 188 142 186 135 153 107 162 165 160 148 163 175 172 163 167 170 160 162
271 232 244 222 233 244 242 233 243 239 223 253 282 223 223 244 228 207 166 213 158 125 183 120 149 143 108 35 138 134 118 182 171 167 170 168 158 152
244 211 214 238 253 246 244 209 225 230 224 227 243 201 218 219 200 180 171 199 157 111 170 117 140 115 89 118 97 106 127 159 155 168 160 161 154 156
171 161 204 227 244 251 258 255 244 267 174 197 218 199 242 204 151 165 158 176 282 139 158 121 130 138 111 139 136 108 96 149 148 141 143 161 160 161
118 172 201 228 244 278 292 319 255 210 167 175 184 193 187 165 118 109 80 84 53 79 113 99 142 133 124 114 132 124 112 147 178 135 136 151 161 159
80 103 243 247 324 247 56 14 353 162 175 174 177 135 95 144 138 139 114 123 91 61 44 78 128 132 95 120 124 135 142 149 164 129 124 116 133 159
51 47 30 47 55 49 66 30 10 286 149 161 142 143 153 138 108 118 127 115 101 133 99 38 71 87 101 138 108 118 127 112 159 125 102 118 134 165
14 7 9 14 114 165 116 95 288 66 104 127 145 144 146 134 116 96 110 128 127 138 134 115 116 101 74 45 62 132 86 116 135 119 109 133 156 169
10 6 358 360 337 310 197 148 235 107 112 89 113 129 126 124 130 136 140 152 159 142 168 141 145 121 126 129 38 44 134 95 117 108 127 131 155 176
2 359 357 350 336 298 287 225 174 5 67 106 122 140 137 135 146 155 164 179 165 161 160 171 161 137 146 150 142 144 140 137 157 148 140 75 71 103
348 348 349 349 347 343 344 278 203 180 158 139 154 155 163 172 171 158 159 177 176 149 155 173 187 161 116 97 86 102 115 55 170 154 142 121 113 126
339 334 334 338 340 339 332 337 321 219 173 159 171 172 170 160 170 155 157 167 176 175 168 153 139 140 127 127 130 136 130 107 51 119 131 144 163 177
327 325 322 324 324 320 312 305 300 307 189 158 173 177 174 178 185 157 159 162 157 157 137 138 144 134 125 136 135 138 136 140 134 126 119 68 70 107